Find Kosmos-1475

NORAD ID: 14173 Int'l Des: 1983-069 Owner: GUKOS Country: SU operational
LEOCIRCULAR

Live-Position

3D-Globus wird geladen...

Über Kosmos-1475

Beschreibung wird geladen...

Nächste Überflüge

Passes for default location (London). Set your location on the main map for personalized predictions.

Höhenverlauf

Loading altitude history...

Zweizeiliger Elementsatz

1 14173U 83069C 26106.11765243 -.00000029 00000-0 -82733-4 0 9996
2 14173 74.0252 237.2340 0021789 178.4444 7.6378 12.54579893959207
Epoch: 16. Apr. 2026 • Age: 10 hours

Aktueller Status

Höhe 1431.6 km
Geschwindigkeit 7.15 km/s
Subsatellitenpunkt -4.60°S, 27.59°E
Startdatum 6. Juli 1983
Alter 42.7 years
Typ other

Technische Details

Klassifizierung Payload
Masse 60.00 kg
Trockenmasse 60.00 kg
Gesamtmasse 60.00 kg
Länge 0.80 m
Durchmesser 0.80 m
Spannweite 0.80 m
Form Poly
Hersteller NPOPM
Bus-Typ Strela-1 11F625
Phasenstatus In Orbit
Besitzer/Staat GUKOS/SU

Most Searched